Tucson Davis Monthan, AZ

6:42 AM MST on March 25, 2017 (GMT -0700)
Davis-Monthan Air Force Base

Weather History for KDMA - April, 2013

Change the Weather History Date:

Wednesday, April 17, 2013

  Actual Average Record
Temperature  
Mean Temperature 60 °F -  
Max Temperature 66 °F 81 °F 97 °F (1987)
Min Temperature 51 °F 51 °F 33 °F (1976)
Degree Days  
Heating Degree Days 5    
Growing Degree Days 10 (Base 50)    
Moisture  
Dew Point 22 °F    
Average Humidity 27    
Maximum Humidity 57    
Minimum Humidity 11    
Precipitation  
Precipitation 0.00 in - - ()
Sea Level Pressure  
Sea Level Pressure 29.85 in    
Wind  
Wind Speed 11 mph (WNW)    
Max Wind Speed 22 mph    
Max Gust Speed 29 mph    
Visibility 10 miles    
Events      
Averages and records for this station are not official NWS values.
T = Trace of Precipitation, MM = Missing Value Source: NWS Daily Summary

Daily Weather History Graph

Daily Weather History Graph

Search for Another Location

Airport or City:

Trip Planner

Search our weather history database for the weather conditions in past years. The results will help you decide how hot, cold, wet, or windy it might be!

Date:

Astronomy

Apr. 17, 2013 Rise Set
Actual Time 5:51 AM MST 6:54 PM MST
Civil Twilight 5:26 AM MST 7:19 PM MST
Nautical Twilight 4:56 AM MST 7:49 PM MST
Astronomical Twilight 4:25 AM MST 8:20 PM MST
Moon 11:15 AM MST (4/17) 12:27 AM MST (4/17)
Length of Visible Light 13h 53m
Length of Day
13h 02m
Waxing Crescent, 43% of the Moon is Illuminated
Apr 17
Waxing Crescent
Apr 18
First Quarter
Apr 25
Full
May 2
Last Quarter
May 9
New

Hourly Weather History & Observations

Time (MST) Temp. Dew Point Humidity Pressure Visibility Wind Dir Wind Speed Gust Speed Precip Events Conditions
12:58 AM 60.6 °F 31.6 °F 34% 29.75 in 10.0 mi NNW 6.9 mph - N/A   Mostly Cloudy
1:58 AM 60.1 °F 26.2 °F 28% 29.73 in 10.0 mi North 3.5 mph - N/A   Clear
2:58 AM 56.7 °F 26.2 °F 31% 29.72 in 10.0 mi NW 6.9 mph - N/A   Clear
3:58 AM 57.0 °F 28.4 °F 34% 29.72 in 10.0 mi NNW 2.3 mph - N/A   Clear
4:58 AM 56.3 °F 36.0 °F 46% 29.73 in 10.0 mi West 12.7 mph - N/A   Clear
5:58 AM 56.8 °F 41.5 °F 57% 29.76 in 10.0 mi West 16.1 mph 25.3 mph N/A   Partly Cloudy
6:58 AM 56.3 °F 39.9 °F 54% 29.80 in 10.0 mi WNW 10.4 mph - N/A   Mostly Cloudy
7:58 AM 57.0 °F 40.8 °F 55% 29.82 in 10.0 mi WNW 10.4 mph - N/A   Mostly Cloudy
8:58 AM 58.5 °F 37.9 °F 46% 29.84 in 10.0 mi West 13.8 mph 21.9 mph N/A   Mostly Cloudy
9:58 AM 59.7 °F 38.1 °F 45% 29.85 in 10.0 mi WNW 16.1 mph 26.5 mph N/A   Scattered Clouds
10:58 AM 62.2 °F 27.0 °F 26% 29.87 in 10.0 mi West 18.4 mph 24.2 mph N/A   Scattered Clouds
11:58 AM 62.6 °F 23.5 °F 23% 29.88 in 10.0 mi West 18.4 mph 25.3 mph N/A   Partly Cloudy
12:58 PM 64.2 °F 21.4 °F 19% 29.88 in 10.0 mi WNW 18.4 mph 27.6 mph N/A   Clear
1:58 PM 65.3 °F 19.8 °F 18% 29.86 in 10.0 mi NW 16.1 mph 27.6 mph N/A   Partly Cloudy
2:05 PM 66.2 °F 19.4 °F 17% 29.93 in 10.0 mi WNW 21.9 mph 28.8 mph N/A   Partly Cloudy
2:58 PM 65.8 °F 19.0 °F 17% 29.86 in 10.0 mi West 17.3 mph 26.5 mph N/A   Clear
3:58 PM 66.4 °F 16.0 °F 14% 29.86 in 10.0 mi NW 17.3 mph 23.0 mph N/A   Clear
4:56 PM 66.2 °F 10.4 °F 11% 29.93 in 10.0 mi NW 15.0 mph 21.9 mph N/A   Clear
4:58 PM 65.8 °F 10.2 °F 11% 29.86 in 10.0 mi NW 15.0 mph 21.9 mph N/A   Clear
5:58 PM 64.8 °F 9.3 °F 11% 29.87 in 10.0 mi WNW 12.7 mph 21.9 mph N/A   Clear
6:58 PM 62.4 °F 11.1 °F 13% 29.88 in 10.0 mi West 8.1 mph - N/A   Clear
7:58 PM 61.2 °F 8.2 °F 12% 29.92 in 10.0 mi WNW 12.7 mph - N/A   Clear
8:58 PM 57.7 °F 9.0 °F 14% 29.95 in 10.0 mi NW 6.9 mph - N/A   Clear
9:58 PM 55.8 °F 10.4 °F 16% 29.97 in 10.0 mi NW 6.9 mph - N/A   Clear
10:58 PM 54.3 °F 10.6 °F 18% 29.97 in 10.0 mi WNW 5.8 mph - N/A   Clear
11:58 PM 51.8 °F 10.4 °F 19% 29.97 in 10.0 mi WNW 3.5 mph - N/A   Clear